Location: Burbank
(38.7788°N, 114.0429°W)
Time: 12:06:58
(UTC+00:00)

Vanguard 2 - Pass Details

Date: 19 May 2026
Orbit: 553 x 2894 km, 32.9° (Epoch: 11 June)

Event Time Altitude Azimuth Distance (km) Brightness Sun altitude
Rises 08:48:50 0° 245° (WSW) 6,032 - -28.8°
Reaches altitude 10° 08:52:30 10° 243° (WSW) 5,241 - -28.5°
Exits shadow 08:59:07 32° 234° (SW) 3,977 10.6 -28.0°
Maximum altitude 09:08:48 66° 166° (SSE) 3,082 10.2 -27.2°
Drops below altitude 10° 09:25:18 10° 90° (E) 5,301 12.1 -25.7°
Sets 09:29:01 0° 87° (E) 6,102 12.6 -25.4°
